Flag for U.S.A. Weather past 2 weeks in Chicago, Illinois, U.S.A.

Now
38 °F

Clear.


Feels Like: 33 °F
Forecast: 36 / 55 °F
Wind: 7 mph from West

Location: Chicago Midway Airport

Current Time: Mar 30, 2015 at 5:04:14 AM

Latest Report: Mar 30, 2015 at 3:53 AM


Visibility: 10 mi

Pressure: 29.99 "Hg

Humidity: 73%

Dew point: 30 °F

Location of ChicagoLocation

Historic Weather in Chicago — Graph

°F

Chicago temperature yesterday

Maximum temperature yesterday: 51 °F (at 7:53 PM)
Minimum temperature yesterday: 28 °F (at 12:53 AM)
Average temperature yesterday: 38 °F

Past Weeks' High & Low Weather Summary

 TemperatureHumidityPressure
High74 °F (Mar 16, 4:53 PM)93% (Mar 21, 4:53 AM)30.39 "Hg (Mar 21, 4:53 AM)
Low22 °F (Mar 28, 4:53 AM)19% (Mar 18, 1:53 PM)29.72 "Hg (Mar 16, 5:53 PM)
Average40 °F59%30.16 "Hg
* Reported Mar 15 3:53 AM — Mar 30 3:53 AM, Chicago, Weather by CustomWeather, © 2015

Note: Actual official high and low records may vary slightly from our data, if they occured in-between our weather recording intervals... More about our weather records

Advertising

Chicago weather history for previous 24 hours

 ConditionsComfort  
Time TempWeatherWind HumidityBarometerVisibility
3:53 AM
Mon, Mar 30
38 °FClear.7 mph73%29.99 "Hg10 mi
2:53 AM39 °FClear.5 mph70%29.99 "Hg10 mi
1:53 AM42 °FPassing clouds.5 mph68%29.99 "Hg10 mi
12:53 AM42 °FPartly cloudy.6 mph71%29.97 "Hg10 mi
11:53 PM
Sun, Mar 29
43 °FPassing clouds.7 mph71%29.96 "Hg10 mi
10:53 PM44 °FPartly cloudy.5 mph68%29.94 "Hg10 mi
9:53 PM46 °FPassing clouds.13 mph63%29.93 "Hg10 mi
8:53 PM48 °FMostly cloudy.13 mph63%29.89 "Hg10 mi
7:53 PM51 °FOvercast.23 mph59%29.83 "Hg10 mi
6:53 PM49 °FMostly cloudy.17 mph59%29.78 "Hg10 mi
5:53 PM48 °FOvercast.18 mph59%29.79 "Hg10 mi
4:53 PM46 °FPartly sunny.23 mph63%29.82 "Hg10 mi
3:53 PM43 °FPartly sunny.25 mph62%29.85 "Hg10 mi
2:53 PM38 °FOvercast.21 mph73%29.89 "Hg10 mi
1:53 PM37 °FMostly cloudy.20 mph73%29.92 "Hg10 mi
12:53 PM37 °FMostly cloudy.15 mph70%29.99 "Hg10 mi
11:53 AM37 °FLight rain. Mostly cloudy.22 mph62%29.98 "Hg10 mi
10:53 AM40 °FMostly cloudy.22 mph40%30.03 "Hg10 mi
9:53 AM38 °FPartly sunny.18 mph45%30.11 "Hg10 mi
8:53 AM36 °FPartly sunny.18 mph46%30.13 "Hg10 mi
7:53 AM32 °FBroken clouds.15 mph54%30.18 "Hg10 mi
6:53 AM32 °FPassing clouds.12 mph52%30.17 "Hg10 mi
5:53 AM31 °FPassing clouds.10 mph52%30.20 "Hg10 mi
Weather by CustomWeather, © 2015

See weather overviewHow to use our weather pages